Hourly Data Report for March 30, 2020

TORONTO CITY
ONTARIO
Current Station Operator: ECCC - MSC

43°40'00.000" N
79°24'00.000" W
112.50 m
6158355
71508
XTO

Download Data

Hourly Data (March 2020)
Hourly Data Report for March 30, 2020
TIME
LST
Temp Definition
°C
Dew Point Definition
°C
Rel Hum Definition
%
Precip. Amount Definition
mm

Wind Dir Definition
10's deg

Wind Spd Definition
km/h
Visibility Definition
km
Stn Press Definition
kPa
Hmdx Definition


Wind Chill Definition


Weather Definition


00:00 9.1 4.1 71 0.0       99.34     LegendNANA
01:00 9.6 3.5 66 0.0       99.32     LegendNANA
02:00 9.6 2.2 60 0.0       99.27     LegendNANA
03:00 9.3 1.4 58 0.0       99.26     LegendNANA
04:00 9.0 1.1 58 0.0       99.26     LegendNANA
05:00 8.3 1.5 62 0.0       99.33     LegendNANA
06:00 7.9 1.5 64 0.0       99.38     LegendNANA
07:00 6.8 2.8 76 0.2       99.47     LegendNANA
08:00 6.5 3.0 79 1.1       99.53     LegendNANA
09:00 7.2 3.6 78 0.4       99.55     LegendNANA
10:00 7.8 3.4 74 0.0       99.59     LegendNANA
11:00 8.0 3.4 73 0.3       99.62     LegendNANA
12:00 8.3 3.5 72 0.2       99.64     LegendNANA
13:00 8.9 3.6 70 0.0       99.68     LegendNANA
14:00 9.1 3.3 67 0.0       99.70     LegendNANA
15:00 9.0 3.0 66 0.0       99.74     LegendNANA
16:00 7.9 2.8 70 0.0       99.82     LegendNANA
17:00 7.4 2.4 71 0.0       99.92     LegendNANA
18:00 6.2 2.4 77 0.2       100.01     LegendNANA
19:00 6.1 2.5 78 0.0       100.06     LegendNANA
20:00 6.2 1.9 74 0.0       100.12     LegendNANA
21:00 6.1 1.9 74 0.0       100.14     LegendNANA
22:00 5.9 2.0 76 0.0       100.14     LegendNANA
23:00 5.8 2.3 78 0.0       100.11     LegendNANA

Notes on Data Quality.

Legend

  • E = Estimated
  • M = Missing
  • NA = Not Available*
  • [empty] = Indicates an unobserved value
Date modified: